Regional Weather Roundup
Issued by NWS Sterling, VA

Home | Current Version | Previous Version | Text Only | Print | Product List | Glossary On
Versions: 1 2 3 4 5 6 7 8 9 10 11 12 13 14 15 16 17 18 19 20 21 22 23 24 25 26 27 28 29 30 31 32 33 34 35 36 37 38 39 40 41 42 43 44 45 46 47 48 49 50
000
ASUS41 KLWX 251811
RWRLWX

REGIONAL WEATHER ROUNDUP
NATIONAL WEATHER SERVICE BALTIMORE MD/WASHINGTON DC
200 PM EDT MON SEP 25 2017

Note: "FAIR" indicates few or no clouds below 12,000 feet
with no significant weather and/or obstructions to visibility.
 TC=TEMPERATURE CELSIUS

 * =Non NWS site. Station does not report precipitation (e.g. rain,
    snow, etc.), thunder, or fog.

DCZ001-MDZ009-015-VAZ040>042-051-053>054-251900-
WASHINGTON METRO

CITY           SKY/WX    TMP DP  RH WIND       PRES   REMARKS
WASHINGTON NAT PTSUNNY   90  67  46 N6        30.02F HX  93
DULLES         PTSUNNY   87  68  52 VRB6      30.03F HX  90
ANDREWS AFB    SUNNY     86  66  51 NE7       30.01F
FT BELVOIR     SUNNY     89  65  45 NE3       30.01F HX  91
QUANTICO       PTSUNNY   88  69  53 NE7       30.02F HX  92
COLLEGE PARK*  SUNNY     86  67  52 E3        30.02F
LEESBURG*      SUNNY     88  70  55 NE5       30.04F HX  92
MANASSAS*      MOSUNNY   89  69  51 SE7       30.02F HX  93
GAITHERSBURG*  SUNNY     88  69  53 VRB5      30.05F HX  92

$$

MDZ006>007-011-014-251900-
BALTIMORE METRO

CITY           SKY/WX    TMP DP  RH WIND       PRES   REMARKS
BWI AIRPORT    MOSUNNY   88  65  46 E8        30.02F HX  90
MD SCIENCE CTR   N/A     89  67  47 MISG      30.02F HX  92
MARTIN STATE   MOSUNNY   88  72  58 SE6       30.04F HX  94
ANNAPOLIS      SUNNY     86  69  56 E6        30.02F HX  90
FORT MEADE*      N/A     86  68  54 CALM      30.05F

$$

MDZ012-015-019>023-251900-
MARYLAND EASTERN SHORE

CITY           SKY/WX    TMP DP  RH WIND       PRES   REMARKS
OCEAN CITY     CLOUDY    73  70  90 NE9       30.03F
SALISBURY      SUNNY     85  67  54 NE15      30.01F
CAMBRIDGE*     SUNNY     86  66  51 NE6G13    30.01F
EASTON*        SUNNY     90  66  45 NE8G16    30.05F HX  92

$$

MDZ017>025-251900-
SOUTHERN MARYLAND

CITY           SKY/WX    TMP DP  RH WIND       PRES   REMARKS
PATUXENT RIVER MOSUNNY   86  63  45 N7        30.01F
ST INIGOES     NOT AVBL
LEONARDTOWN*   SUNNY     82  63  51 NE5       30.03

$$

MDZ003>005-251900-
NORTH CENTRAL MARYLAND

CITY           SKY/WX    TMP DP  RH WIND       PRES   REMARKS
FREDERICK*     SUNNY     90  66  45 CALM      30.06F HX  92
HAGERSTOWN APT SUNNY     88  67  49 VRB5      30.05F HX  91
WESTMINSTER*   SUNNY     88  66  48 NE6       30.06F HX  90

$$

MDZ501>502-251900-
WESTERN MARYLAND

CITY           SKY/WX    TMP DP  RH WIND       PRES   REMARKS
OAKLAND*       PTSUNNY   77  59  53 SE5       30.15F
CUMBERLAND*    SUNNY     88  63  42 CALM      30.09F

$$

VAZ025>031-251900-
SHENANDOAH VALLEY

CITY           SKY/WX    TMP DP  RH WIND       PRES   REMARKS
WINCHESTER*    MOSUNNY   82  64  54 E5        30.05F
FRONT ROYAL*   MOSUNNY   82  68  61 NE6       30.04F
LURAY*         PTSUNNY   86  64  48 CALM      30.05F
NEW MARKET*    MOSUNNY   89  63  41 SE5       30.03F
STAUNTON*      MOSUNNY   83  65  53 NE5       30.08F
WAYNESBORO*    CLOUDY    81  67  61 N6        30.08F

$$

WVZ021-048>050-054>055-251900-
EASTERN WEST VIRGINIA PANHANDLE

CITY           SKY/WX    TMP DP  RH WIND       PRES   REMARKS
MARTINSBURG    MOSUNNY   88  65  46 NE8       30.03F HX  90
PETERSBURG*    CLOUDY    87  67  51 CALM      30.06F

$$

VAZ036>039-050-251900-
CENTRAL FOOTHILLS

CITY           SKY/WX    TMP DP  RH WIND       PRES   REMARKS
CHARLOTTESVILL CLOUDY    87  66  49 VRB7      30.03F
CULPEPER*      MOSUNNY  N/A N/A N/A NE6       30.03F
ORANGE*        MOSUNNY   86  68  54 NE6       30.02F
GORDONSVILLE*  MOSUNNY   86  68  55 NE10      30.02F HX  90
WARRENTON*     MOSUNNY   91  62  38 E7        30.02  HX  91

$$

VAZ055>057-251900-
NORTH AND CENTRAL PIEDMONT

CITY           SKY/WX    TMP DP  RH WIND       PRES   REMARKS
FREDERICKSBRG* SUNNY     87  67  52 NE7       30.01F HX  90
STAFFORD*      SUNNY     88  65  45 E6        30.06F

$$

NCZ024-NYZ072-PAZ021-071-VAZ022-071-251900-
OTHER REGIONAL OBSERVATIONS

CITY           SKY/WX    TMP DP  RH WIND       PRES   REMARKS
NEW YORK CITY  SUNNY     87  66  49 VRB5      30.06F
PHILADELPHIA   MOSUNNY   90  66  45 E5        30.02F HX  92
PITTSBURGH     CLOUDY    85  65  51 VRB5      30.08F
ROANOKE        CLOUDY    81  64  56 N7        30.08F
RICHMOND       PTSUNNY   86  65  49 E15       29.99F
RALEIGH        PTSUNNY   81  66  60 NE10      29.98F

$$

ANZ530>537-251900-
MARINE OBSERVATIONS

STATION/POSITION TIME  TEMP    WIND        PRES
                       AIR SEA DIR/SP/G
                 (UTC) (F)     (DEG/KT/KT) (MB)
THOMAS PT LIGHT  1800   79 78  360/  6/  6   N/A
BALT KEY BRIDGE  1748   80     140/  8/  8 1016.7F
COVE POINT       1748   77     350/ 12/ 13 1016.9F
LEWISETTA        1748   76 78  110/  4/  5 1016.1F
SOLOMONS ISLAND  1748   81 78  210/  1/  3 1015.9F
PINEY POINT      1748           80/  9/ 10   N/A

$$




USA.gov is the U.S. government's official web portal to all federal, state and local government web resources and services.